SCP
0 -0 -0 -0 -0 -0 -0 -0 -0 0 0 0 1 1 1 0 1 0 0 0 0 0 0 0 0 0 0 0 0 0 0 0
0 0 -0 -0 -0 -0 -0 -0 -0 0 0 1 1 1 1 1 1 0 0 0 0 0 0 0 0 0 0 0 0 0 0 0
0 0 0 0 -0 -0 -0 -0 -0 0 0 0 1 1 1 1 0 0 0 0 0 0 0 0 0 0 0 0 0 0 0 0
0 0 0 0 0 0 -0 0 0 0 0 0 0 1 1 1 0 0 0 0 0 0 0 0 0 0 0 0 0 0 0 0
1 0 0 0 0 0 0 0 0 0 0 0 0 0 1 1 0 0 0 0 0 0 0 0 0 0 0 0 0 0 0 0
1 1 0 0 0 0 0 0 0 0 0 0 0 1 0 0 0 0 0 0 0 0 0 0 1 1 1 0 0 0 0 0
1 1 0 0 0 0 0 0 0 0 0 0 0 0 0 0 0 0 0 0 0 0 1 1 1 1 1 1 0 0 0 0
1 1 1 0 0 0 0 0 0 0 0 0 0 0 0 0 0 0 0 0 0 0 0 1 1 1 1 1 0 0 0 0
0 1 2 1 0 0 0 0 0 0 0 0 0 0 0 0 0 0 0 0 0 0 0 0 0 1 1 0 0 0 0 1
0 1 2 1 0 0 0 0 0 0 0 0 0 0 0 0 0 0 0 0 0 0 0 0 0 0 0 0 0 0 0 1
0 0 0 0 2 1 1 1 1 1 1 0 0 0 0 0 0 0 0 0 0 0 0 0 0 0 0 0 0 0 0 1
0 0 0 0 2 2 1 2 2 3 2 1 1 1 0 0 0 0 0 0 0 0 0 0 0 0 0 0 0 0 0 1
0 0 1 2 3 2 1 1 1 2 2 2 1 2 1 1 0 1 0 0 0 0 0 0 0 0 0 1 1 0 1 2
0 0 1 3 2 1 1 2 2 2 2 1 1 2 3 2 1 1 1 1 0 0 0 0 0 0 0 0 0 1 1 1
0 0 1 1 3 3 3 3 2 2 1 1 2 2 4 4 3 1 1 1 1 0 0 0 0 0 0 0 1 1 1 1
1 1 0 2 3 2 3 3 2 1 1 1 1 2 2 5 4 4 3 2 1 1 1 1 1 1 1 0 1 1 0 0
1 0 0 0 2 1 2 2 1 0 0 0 1 2 2 4 5 3 2 2 2 1 1 1 1 1 1 1 1 0 0 0
2 2 2 1 2 1 2 3 2 1 1 3 2 2 4 4 4 4 2 1 1 1 1 1 1 0 0 1 1 0 0 0
1 1 1 1 1 1 1 2 2 1 1 1 2 3 5 5 4 3 2 2 1 1 1 1 1 0 1 1 1 0 0 0
Wind_Speed_500mb
66 61 56 51 45 39 34 33 33 34 33 31 31 30 28 25 22 18 15 14 12 10 9 6 4 4 4 4 6 7 7 8
68 63 56 51 46 41 36 33 32 32 33 33 33 31 28 27 24 21 20 18 17 15 15 12 11 10 8 7 6 5 5 1
71 64 59 53 46 41 37 35 33 34 35 35 34 33 32 32 29 27 26 25 24 23 22 18 18 16 14 12 10 7 6 7
67 66 61 56 50 43 39 36 35 36 36 36 37 36 36 36 35 33 32 32 32 30 28 26 24 22 20 17 14 11 8 10
63 64 62 57 53 47 42 38 37 38 38 39 40 40 40 40 41 39 40 40 39 38 34 33 31 29 27 23 19 13 9 9
48 55 59 58 53 47 42 40 39 40 41 42 43 44 46 47 46 46 48 47 46 46 41 40 39 36 34 31 25 17 11 10
56 55 55 53 49 46 44 42 40 42 42 43 45 46 50 51 51 53 53 53 52 52 48 47 46 44 43 39 31 24 15 2
70 59 52 47 42 41 41 41 41 41 38 40 47 49 52 53 56 60 60 59 59 57 56 55 55 54 51 45 36 30 22 14
79 68 60 52 47 40 35 36 33 33 30 26 28 32 37 41 51 58 62 63 61 57 53 56 60 59 56 51 39 40 30 20
80 79 73 61 44 37 40 39 39 37 33 26 30 34 38 42 42 41 46 55 58 54 46 45 44 51 57 50 32 30 37 25
30 30 57 71 42 66 60 41 40 43 37 34 36 38 44 51 53 43 41 45 51 52 46 42 39 33 32 37 35 24 32 31
18 28 31 54 48 55 58 49 50 37 39 40 41 43 48 55 58 53 48 43 43 50 46 47 41 37 34 36 38 34 29 37
49 37 32 37 48 55 64 56 45 44 42 42 56 55 52 58 63 61 56 51 41 47 51 55 39 41 39 44 42 38 44 48
61 56 48 46 38 39 41 42 50 48 47 44 46 47 58 63 64 66 63 54 46 45 54 59 61 44 40 38 51 50 48 54
52 64 55 50 49 42 44 46 48 46 49 51 57 55 51 55 61 61 59 51 49 50 51 52 54 54 55 49 42 41 46 53
76 73 77 67 56 55 60 64 59 59 57 59 66 62 55 58 59 60 57 50 51 57 50 47 50 51 49 50 46 46 50 52
80 84 81 77 74 70 68 69 71 68 65 65 52 44 43 52 57 57 57 50 50 50 58 52 51 49 46 45 47 46 44 43
96 86 85 82 83 70 65 60 65 69 65 57 48 47 50 47 54 56 53 47 46 45 49 49 48 49 50 49 47 38 14 21
72 81 80 71 68 62 61 63 64 67 66 63 50 50 55 50 50 52 49 42 42 41 43 45 42 48 44 46 36 39 42 25
Wind_Direction_500mb
166 162 159 166 167 171 177 183 186 190 194 198 201 201 201 203 205 204 210 218 221 222 223 224 241 273 319 341 358 13 47 95
169 167 166 170 171 176 182 190 196 202 207 211 215 216 217 219 219 220 224 230 233 236 239 237 244 250 263 281 298 331 347 32
171 170 174 178 181 186 190 196 202 209 218 221 223 224 227 230 229 230 231 232 238 238 242 245 247 251 256 262 276 292 310 315
175 174 180 183 188 193 198 201 207 215 220 228 232 233 233 235 237 237 238 237 238 240 243 247 248 251 257 262 266 278 303 316
179 180 185 189 192 196 201 207 214 219 223 230 235 238 240 240 241 242 242 240 240 241 242 246 248 250 253 257 262 267 280 320
190 188 189 193 194 199 205 214 219 227 231 233 237 240 243 244 245 246 245 244 243 244 245 246 247 250 252 253 257 255 261 330
193 200 197 200 199 201 209 218 227 234 241 245 247 248 249 250 251 251 251 248 247 246 246 247 248 249 251 253 254 251 257 312
192 199 203 206 204 209 212 220 229 236 240 247 255 257 256 257 257 255 252 250 248 246 246 247 248 250 254 256 258 257 242 219
194 200 199 205 205 210 214 218 219 229 242 250 257 257 260 262 260 256 259 256 251 249 250 252 255 258 258 259 261 267 235 227
196 196 198 200 205 213 237 242 241 241 247 257 267 271 277 283 275 267 259 257 259 256 253 250 258 261 260 257 254 246 241 233
174 194 202 196 205 231 230 235 247 239 243 250 263 273 283 285 283 275 268 254 257 256 259 254 252 270 267 253 243 239 239 250
196 168 195 208 215 219 221 227 232 231 246 252 261 270 279 279 281 277 271 261 255 252 252 257 254 252 260 255 245 242 256 255
250 229 216 193 202 208 213 214 221 229 240 250 250 254 268 272 274 271 267 263 263 245 245 246 253 251 257 252 249 251 250 258
241 233 215 193 197 208 222 230 226 236 247 256 264 257 248 252 259 261 262 264 265 248 235 239 246 252 250 244 242 246 257 260
233 235 221 206 199 203 223 235 242 243 252 261 266 266 261 257 259 257 256 257 259 250 241 240 238 240 247 248 245 248 254 257
245 229 228 223 214 216 225 238 244 250 256 261 269 272 267 263 256 252 255 252 250 245 237 241 239 242 243 244 245 249 253 262
249 230 223 225 232 238 226 229 240 248 258 264 262 262 262 252 250 249 250 250 253 240 233 237 237 237 239 236 240 246 263 274
245 230 217 217 227 229 230 237 242 256 257 252 246 244 251 249 244 251 251 250 246 230 232 235 235 233 239 237 239 244 225 238
237 227 214 211 221 233 235 240 251 250 246 248 237 238 241 245 246 247 249 247 222 225 235 238 236 237 236 238 235 236 238 255
Wind_Speed_850mb
66 61 56 51 45 39 34 33 33 34 33 31 31 30 28 25 22 18 15 14 12 10 9 6 4 4 4 4 6 7 7 8
68 63 56 51 46 41 36 33 32 32 33 33 33 31 28 27 24 21 20 18 17 15 15 12 11 10 8 7 6 5 5 1
71 64 59 53 46 41 37 35 33 34 35 35 34 33 32 32 29 27 26 25 24 23 22 18 18 16 14 12 10 7 6 7
67 66 61 56 50 43 39 36 35 36 36 36 37 36 36 36 35 33 32 32 32 30 28 26 24 22 20 17 14 11 8 10
63 64 62 57 53 47 42 38 37 38 38 39 40 40 40 40 41 39 40 40 39 38 34 33 31 29 27 23 19 13 9 9
48 55 59 58 53 47 42 40 39 40 41 42 43 44 46 47 46 46 48 47 46 46 41 40 39 36 34 31 25 17 11 10
56 55 55 53 49 46 44 42 40 42 42 43 45 46 50 51 51 53 53 53 52 52 48 47 46 44 43 39 31 24 15 2
70 59 52 47 42 41 41 41 41 41 38 40 47 49 52 53 56 60 60 59 59 57 56 55 55 54 51 45 36 30 22 14
79 68 60 52 47 40 35 36 33 33 30 26 28 32 37 41 51 58 62 63 61 57 53 56 60 59 56 51 39 40 30 20
80 79 73 61 44 37 40 39 39 37 33 26 30 34 38 42 42 41 46 55 58 54 46 45 44 51 57 50 32 30 37 25
30 30 57 71 42 66 60 41 40 43 37 34 36 38 44 51 53 43 41 45 51 52 46 42 39 33 32 37 35 24 32 31
18 28 31 54 48 55 58 49 50 37 39 40 41 43 48 55 58 53 48 43 43 50 46 47 41 37 34 36 38 34 29 37
49 37 32 37 48 55 64 56 45 44 42 42 56 55 52 58 63 61 56 51 41 47 51 55 39 41 39 44 42 38 44 48
61 56 48 46 38 39 41 42 50 48 47 44 46 47 58 63 64 66 63 54 46 45 54 59 61 44 40 38 51 50 48 54
52 64 55 50 49 42 44 46 48 46 49 51 57 55 51 55 61 61 59 51 49 50 51 52 54 54 55 49 42 41 46 53
76 73 77 67 56 55 60 64 59 59 57 59 66 62 55 58 59 60 57 50 51 57 50 47 50 51 49 50 46 46 50 52
80 84 81 77 74 70 68 69 71 68 65 65 52 44 43 52 57 57 57 50 50 50 58 52 51 49 46 45 47 46 44 43
96 86 85 82 83 70 65 60 65 69 65 57 48 47 50 47 54 56 53 47 46 45 49 49 48 49 50 49 47 38 14 21
72 81 80 71 68 62 61 63 64 67 66 63 50 50 55 50 50 52 49 42 42 41 43 45 42 48 44 46 36 39 42 25
Wind_Direction_850mb
166 162 159 166 167 171 177 183 186 190 194 198 201 201 201 203 205 204 210 218 221 222 223 224 241 273 319 341 358 13 47 95
169 167 166 170 171 176 182 190 196 202 207 211 215 216 217 219 219 220 224 230 233 236 239 237 244 250 263 281 298 331 347 32
171 170 174 178 181 186 190 196 202 209 218 221 223 224 227 230 229 230 231 232 238 238 242 245 247 251 256 262 276 292 310 315
175 174 180 183 188 193 198 201 207 215 220 228 232 233 233 235 237 237 238 237 238 240 243 247 248 251 257 262 266 278 303 316
179 180 185 189 192 196 201 207 214 219 223 230 235 238 240 240 241 242 242 240 240 241 242 246 248 250 253 257 262 267 280 320
190 188 189 193 194 199 205 214 219 227 231 233 237 240 243 244 245 246 245 244 243 244 245 246 247 250 252 253 257 255 261 330
193 200 197 200 199 201 209 218 227 234 241 245 247 248 249 250 251 251 251 248 247 246 246 247 248 249 251 253 254 251 257 312
192 199 203 206 204 209 212 220 229 236 240 247 255 257 256 257 257 255 252 250 248 246 246 247 248 250 254 256 258 257 242 219
194 200 199 205 205 210 214 218 219 229 242 250 257 257 260 262 260 256 259 256 251 249 250 252 255 258 258 259 261 267 235 227
196 196 198 200 205 213 237 242 241 241 247 257 267 271 277 283 275 267 259 257 259 256 253 250 258 261 260 257 254 246 241 233
174 194 202 196 205 231 230 235 247 239 243 250 263 273 283 285 283 275 268 254 257 256 259 254 252 270 267 253 243 239 239 250
196 168 195 208 215 219 221 227 232 231 246 252 261 270 279 279 281 277 271 261 255 252 252 257 254 252 260 255 245 242 256 255
250 229 216 193 202 208 213 214 221 229 240 250 250 254 268 272 274 271 267 263 263 245 245 246 253 251 257 252 249 251 250 258
241 233 215 193 197 208 222 230 226 236 247 256 264 257 248 252 259 261 262 264 265 248 235 239 246 252 250 244 242 246 257 260
233 235 221 206 199 203 223 235 242 243 252 261 266 266 261 257 259 257 256 257 259 250 241 240 238 240 247 248 245 248 254 257
245 229 228 223 214 216 225 238 244 250 256 261 269 272 267 263 256 252 255 252 250 245 237 241 239 242 243 244 245 249 253 262
249 230 223 225 232 238 226 229 240 248 258 264 262 262 262 252 250 249 250 250 253 240 233 237 237 237 239 236 240 246 263 274
245 230 217 217 227 229 230 237 242 256 257 252 246 244 251 249 244 251 251 250 246 230 232 235 235 233 239 237 239 244 225 238
237 227 214 211 221 233 235 240 251 250 246 248 237 238 241 245 246 247 249 247 222 225 235 238 236 237 236 238 235 236 238 255